Orr, MN

10:59 AM CDT on May 26, 2017 (GMT -0500)
Orr Regional

Weather History for KORB - February, 2014

Change the Weather History Date:

Monday, February 24, 2014

  Actual Average Record
Temperature  
Mean Temperature 0 °F -  
Max Temperature 10 °F 24 °F 50 °F (1998)
Min Temperature -9 °F 6 °F -25 °F (2003)
Degree Days  
Heating Degree Days 64    
Moisture  
Dew Point -8 °F    
Average Humidity 66    
Maximum Humidity 84    
Minimum Humidity 52    
Precipitation  
Precipitation 0.00 in - - ()
Sea Level Pressure  
Sea Level Pressure 30.12 in    
Wind  
Wind Speed 10 mph (WNW)    
Max Wind Speed 15 mph    
Max Gust Speed 23 mph    
Visibility 9 miles    
Events      
Averages and records for this station are not official NWS values.
T = Trace of Precipitation, MM = Missing Value Source: NWS Daily Summary

Daily Weather History Graph

Daily Weather History Graph

Search for Another Location

Airport or City:

Trip Planner

Search our weather history database for the weather conditions in past years. The results will help you decide how hot, cold, wet, or windy it might be!

Date:

Astronomy

Feb. 24, 2014 Rise Set
Actual Time 7:01 AM CST 5:48 PM CST
Civil Twilight 6:30 AM CST 6:19 PM CST
Nautical Twilight 5:54 AM CST 6:55 PM CST
Astronomical Twilight 5:18 AM CST 7:31 PM CST
Moon 3:15 AM CST (2/24) 12:35 PM CST (2/24)
Length of Visible Light 11h 49m
Length of Day
10h 46m
Waning Crescent, 28% of the Moon is Illuminated
Feb 24
Waning Crescent
Mar 1
New
Mar 8
First Quarter
Mar 16
Full
Mar 23
Last Quarter

Hourly Weather History & Observations

Time (CST) Temp. Windchill Dew Point Humidity Pressure Visibility Wind Dir Wind Speed Gust Speed Precip Events Conditions
12:13 AM 1.4 °F -16.1 °F -4.0 °F 78% 30.04 in 5.0 mi WNW 12.7 mph 19.6 mph N/A   Haze
12:33 AM 1.4 °F -15.3 °F -4.0 °F 78% 30.05 in 7.0 mi WNW 11.5 mph 17.3 mph N/A   Overcast
12:53 AM 1.4 °F -15.3 °F -5.8 °F 72% 30.05 in 7.0 mi WNW 11.5 mph 17.3 mph N/A   Overcast
1:13 AM 1.4 °F -14.5 °F -5.8 °F 72% 30.05 in 7.0 mi WNW 10.4 mph 16.1 mph N/A   Overcast
1:33 AM 1.4 °F -16.1 °F -5.8 °F 72% 30.05 in 5.0 mi WNW 12.7 mph - N/A   Haze
1:53 AM -0.4 °F -15.7 °F -5.8 °F 78% 30.06 in 5.0 mi WNW 9.2 mph 17.3 mph N/A   Haze
2:13 AM -0.4 °F -16.7 °F -5.8 °F 78% 30.06 in 7.0 mi WNW 10.4 mph 17.3 mph N/A   Overcast
2:33 AM -0.4 °F -17.6 °F -5.8 °F 78% 30.06 in 7.0 mi WNW 11.5 mph - N/A   Overcast
2:53 AM -0.4 °F -17.6 °F -7.6 °F 72% 30.06 in 7.0 mi WNW 11.5 mph - N/A   Overcast
3:13 AM -0.4 °F -18.4 °F -7.6 °F 72% 30.06 in 7.0 mi WNW 12.7 mph 18.4 mph N/A   Overcast
3:33 AM -0.4 °F -19.9 °F -7.6 °F 72% 30.07 in 5.0 mi WNW 15.0 mph 23.0 mph N/A   Haze
3:53 AM -0.4 °F -19.2 °F -7.6 °F 72% 30.07 in 7.0 mi WNW 13.8 mph 17.3 mph N/A   Overcast
4:13 AM -0.4 °F -18.4 °F -7.6 °F 72% 30.07 in 5.0 mi WNW 12.7 mph 18.4 mph N/A   Haze
4:33 AM -2.2 °F -19.9 °F -7.6 °F 78% 30.08 in 10.0 mi WNW 11.5 mph - N/A   Overcast
4:53 AM -2.2 °F -19.9 °F -7.6 °F 78% 30.08 in 10.0 mi NW 11.5 mph - N/A   Overcast
5:13 AM -2.2 °F -19.9 °F -9.4 °F 71% 30.08 in 10.0 mi NW 11.5 mph - N/A   Overcast
5:33 AM -2.2 °F -18.9 °F -9.4 °F 71% 30.09 in 10.0 mi WNW 10.4 mph - N/A   Overcast
5:53 AM -4.0 °F -19.0 °F -9.4 °F 78% 30.09 in 10.0 mi WNW 8.1 mph - N/A   Overcast
6:13 AM -4.0 °F -19.0 °F -9.4 °F 78% 30.10 in 10.0 mi WNW 8.1 mph - N/A   Overcast
6:33 AM -5.8 °F -22.4 °F -9.4 °F 84% 30.10 in 10.0 mi WNW 9.2 mph - N/A   Overcast
6:53 AM -5.8 °F -21.2 °F -11.2 °F 77% 30.10 in 10.0 mi WNW 8.1 mph - N/A   Overcast
7:13 AM -5.8 °F -21.2 °F -11.2 °F 77% 30.11 in 10.0 mi WNW 8.1 mph - N/A   Overcast
7:33 AM -5.8 °F -19.9 °F -11.2 °F 77% 30.12 in 10.0 mi WNW 6.9 mph - N/A   Mostly Cloudy
7:53 AM -5.8 °F -19.9 °F -9.4 °F 84% 30.12 in 10.0 mi WNW 6.9 mph - N/A   Mostly Cloudy
8:13 AM -5.8 °F -22.4 °F -11.2 °F 77% 30.13 in 10.0 mi WNW 9.2 mph - N/A   Mostly Cloudy
8:33 AM -4.0 °F -20.2 °F -9.4 °F 78% 30.13 in 10.0 mi NW 9.2 mph - N/A   Scattered Clouds
8:53 AM -4.0 °F -19.0 °F -11.2 °F 71% 30.13 in 10.0 mi WNW 8.1 mph - N/A   Mostly Cloudy
9:13 AM -2.2 °F -18.0 °F -9.4 °F 71% 30.13 in 10.0 mi WNW 9.2 mph - N/A   Scattered Clouds
9:33 AM -0.4 °F -15.7 °F -9.4 °F 66% 30.13 in 10.0 mi WNW 9.2 mph - N/A   Clear
9:53 AM -0.4 °F -15.7 °F -9.4 °F 66% 30.13 in 10.0 mi NW 9.2 mph - N/A   Clear
10:13 AM 1.4 °F -13.5 °F -9.4 °F 61% 30.14 in 10.0 mi WNW 9.2 mph - N/A   Clear
10:33 AM 1.4 °F -15.3 °F -9.4 °F 61% 30.14 in 10.0 mi WNW 11.5 mph - N/A   Clear
10:53 AM 3.2 °F -11.3 °F -7.6 °F 61% 30.14 in 10.0 mi WNW 9.2 mph - N/A   Clear
11:13 AM 3.2 °F -11.3 °F -7.6 °F 61% 30.15 in 10.0 mi WNW 9.2 mph - N/A   Clear
11:33 AM 3.2 °F -12.2 °F -7.6 °F 61% 30.15 in 10.0 mi West 10.4 mph - N/A   Clear
11:54 AM 5.0 °F -9.1 °F -7.6 °F 56% 30.15 in 10.0 mi WNW 9.2 mph - N/A   Clear
12:13 PM 5.0 °F -6.9 °F -7.6 °F 56% 30.15 in 10.0 mi West 6.9 mph - N/A   Clear
12:34 PM 6.8 °F -6.9 °F -7.6 °F 52% 30.15 in 10.0 mi WNW 9.2 mph - N/A   Clear
12:53 PM 6.8 °F -6.9 °F -5.8 °F 56% 30.14 in 10.0 mi NW 9.2 mph - N/A   Clear
1:13 PM 6.8 °F -7.8 °F -5.8 °F 56% 30.14 in 10.0 mi WNW 10.4 mph - N/A   Clear
1:33 PM 8.6 °F -6.3 °F -5.8 °F 52% 30.14 in 10.0 mi NW 11.5 mph - N/A   Clear
1:53 PM 8.6 °F -7.0 °F -5.8 °F 52% 30.14 in 10.0 mi NW 12.7 mph - N/A   Clear
2:13 PM 10.4 °F -3.3 °F -4.0 °F 52% 30.13 in 10.0 mi NW 10.4 mph - N/A   Clear
2:33 PM 10.4 °F -3.3 °F -4.0 °F 52% 30.12 in 10.0 mi WNW 10.4 mph - N/A   Clear
2:53 PM 10.4 °F -3.3 °F -4.0 °F 52% 30.13 in 10.0 mi NW 10.4 mph - N/A   Clear
3:13 PM 10.4 °F -4.1 °F -4.0 °F 52% 30.13 in 10.0 mi WNW 11.5 mph - N/A   Clear
3:33 PM 10.4 °F -3.3 °F -4.0 °F 52% 30.13 in 10.0 mi WNW 10.4 mph - N/A   Clear
3:53 PM 10.4 °F -1.5 °F -4.0 °F 52% 30.13 in 10.0 mi WNW 8.1 mph 16.1 mph N/A   Scattered Clouds
4:13 PM 10.4 °F -3.3 °F -4.0 °F 52% 30.13 in 10.0 mi West 10.4 mph - N/A   Scattered Clouds
4:33 PM 8.6 °F -5.5 °F -5.8 °F 52% 30.13 in 10.0 mi West 10.4 mph 18.4 mph N/A   Clear
4:53 PM 8.6 °F -5.5 °F -5.8 °F 52% 30.13 in 10.0 mi West 10.4 mph - N/A   Clear
5:13 PM 6.8 °F -8.6 °F -5.8 °F 56% 30.13 in 10.0 mi West 11.5 mph - N/A   Clear
5:33 PM 6.8 °F -6.9 °F -5.8 °F 56% 30.13 in 10.0 mi West 9.2 mph 16.1 mph N/A   Clear
5:53 PM 5.0 °F -10.0 °F -7.6 °F 56% 30.13 in 10.0 mi West 10.4 mph - N/A   Clear
6:13 PM 3.2 °F -10.3 °F -7.6 °F 61% 30.13 in 10.0 mi West 8.1 mph - N/A   Clear
6:33 PM 3.2 °F -12.2 °F -7.6 °F 61% 30.13 in 10.0 mi West 10.4 mph - N/A   Clear
6:53 PM 3.2 °F -9.1 °F -7.6 °F 61% 30.13 in 10.0 mi West 6.9 mph 10.4 mph N/A   Clear
7:13 PM 3.2 °F -11.3 °F -7.6 °F 61% 30.14 in 10.0 mi West 9.2 mph 17.3 mph N/A   Clear
7:33 PM 1.4 °F -14.5 °F -9.4 °F 61% 30.14 in 10.0 mi West 10.4 mph 16.1 mph N/A   Clear
7:53 PM 1.4 °F -13.5 °F -9.4 °F 61% 30.14 in 10.0 mi West 9.2 mph - N/A   Clear
8:13 PM -0.4 °F -13.4 °F -9.4 °F 66% 30.14 in 10.0 mi West 6.9 mph - N/A   Clear
8:33 PM -0.4 °F -16.7 °F -11.2 °F 60% 30.15 in 10.0 mi West 10.4 mph 18.4 mph N/A   Clear
8:53 PM -2.2 °F -18.0 °F -11.2 °F 66% 30.15 in 10.0 mi West 9.2 mph - N/A   Clear
9:13 PM -2.2 °F -18.9 °F -11.2 °F 66% 30.15 in 10.0 mi West 10.4 mph - N/A   Clear
9:33 PM -4.0 °F -19.0 °F -11.2 °F 71% 30.15 in 10.0 mi West 8.1 mph - N/A   Clear
9:53 PM -5.8 °F -23.4 °F -13.0 °F 71% 30.15 in 10.0 mi West 10.4 mph - N/A   Clear
10:13 PM -5.8 °F -18.4 °F -13.0 °F 71% 30.15 in 10.0 mi West 5.8 mph - N/A   Clear
10:33 PM -7.6 °F -22.1 °F -14.8 °F 71% 30.15 in 10.0 mi West 6.9 mph - N/A   Scattered Clouds
10:53 PM -7.6 °F -23.4 °F -14.8 °F 71% 30.14 in 10.0 mi West 8.1 mph - N/A   Scattered Clouds
11:13 PM -7.6 °F -23.4 °F -14.8 °F 71% 30.14 in 10.0 mi West 8.1 mph - N/A   Clear
11:33 PM -9.4 °F -25.6 °F -14.8 °F 77% 30.14 in 10.0 mi West 8.1 mph - N/A   Clear
11:53 PM -9.4 °F -24.3 °F -16.6 °F 71% 30.13 in 10.0 mi West 6.9 mph - N/A   Clear